Погода в Амбролаури

Погода в Амбролаури : погода сейчас, прогноз погоды и архив. Всё, что Вы хотите узнать о погоде в Амбролаури!

Поиск расширенной информации на нашем сайте:

Другие новости

Новости СМИ2

Главная страница сайта

Новости сайта

02.10.2013

Напоминаем, что на нашем новом сайте вы можете получить высокодетализированные прогнозы погоды по пунктам России, СНГ и мира (включающие важные для авиации метеовеличины, такие как направление и скорость ветра, видимость, явления погоды, количество и форма облачности, нижняя и верхняя граница облачности), а также ознакомиться с разнообразными материалами по авиационной метеорологии и подборкой полезных ссылок на эту тему.

Сайт Метеоцентр.Азия посвящён разработке технологий оптимизации авиаметеорологического обслуживания, включая проектирование и перспективное создание нескольких автоматизированных авиаметеорологических систем:
- система выпуска высокодетальных прогностических карт явлений погоды для нижнего воздушного пространства по России и ближнему зарубежью;
- система верификации прогнозов TAF (выпускаемых синоптиками официальных АМСГ РФ и ближнего зарубежья) и AUTOTAF (выпускаемых сайтом Метеоцентр.Азия) - выявление ошибок, онлайн-сопоставление с фактической погодой METAR, автоматическое внесение коррективов в прогнозы при резком отклонении фактической погоды от прогноза, подсчёт оправдываемости прогнозов по элементам и в целом;
- система обработки, анализа и отображения авиаметеорологической информации для применения провайдерами метеорологической информации.

Рекомендуем: Гербалайф белковые батончики.

Погода в Амбролаури - сегодня

Время (UTC), дата Ветер
(°,м/с) 
Видим.   Явления Облачность Т
(°С)
Тd
(°С)
f(%) Тe
(°С)
Pmin
(гПа)
dP
(гПа)
Po
(мм)
O2
(г/м3)
Тmin Tmax R s Состояние
почвы
06 17.02.17 150 (ЮВ) 1-1{01}  н/о    н/о 
-5.2 -9.6 71 -5  1031  1.7  721  297  -10    0.9  966   
09 17.02.17 280 (З) 3-2{03}  н/о    н/о 
-3.2 -7.3 73 -5  1031.2  0.7  722  295           
12 17.02.17 270 (З) 3-3{03}  н/о    н/о 
-1.4 -5.1 76 -3  1030.1  -0.6  721  293        966   
15 17.02.17 310 (СЗ) 5-4{06}  н/о    н/о 
-1.5 -6.4 69 -5  1031.4  1.2  722  293    -0.3       
18 17.02.17 030 (СВ) 1-0{01}  н/о    н/о 
-2.9 -5.3 83 -2  1033.4  1.5  723  295    -0.3    64   
21 17.02.17 тихо () -0{00}  н/о    н/о 
-4 -5.7 88 -4  1034.3  0.6  724  297           
00 18.02.17 110 (В) 1-0{01}  н/о    н/о 
-6.1 -7.4 90 -6  1034.7  0.1  724  299        68   
03 18.02.17 080 (В) 4-3{04}  н/о    н/о 
-7.9 -11.1 78 -12  1034.9  -0.3  723  301           
06 18.02.17 110 (В) 4-4{05}  н/о    н/о 
-6.5 -11.5 68 -10  1034.9  0.3  724  300  -9.4      966   
09 18.02.17 270 (З) 4-3{03}  н/о    н/о 
-0.3 -9.2 51 -3  1031  -2.1  722  292           
12 18.02.17 270 (З) 4-3{04}  н/о    н/о 
+3.7 -7.3 44 +2  1027.8  -2.1  721  287         
15 18.02.17 тихо () -0{00}  н/о    н/о 
+0.3 -3.6 75 1029  0.3  721  290    +4.2       
18 18.02.17 090 (В) 2-1{02}  н/о    н/о 
-1.8 -3.7 87 -3  1031.1  1.5  722  293    +4.2     
21 18.02.17 100 (В) 3-2{02}  н/о    н/о 
-3.1 -5.5 83 -5  1032.7  1.1  723  295           
00 19.02.17 100 (В) 2-1{02}  н/о    н/о 
-5 -6.6 89 -6  1034.2  724  298         
03 19.02.17 тихо () -0{00}  н/о    н/о 
-5.3 -6.4 92 -5  1034.9  0.6  724  298           
06 19.02.17 090 (В) 2-1{02}  н/о    н/о 
-1.1 -6.6 66 -2  1034.9  725  294  -6.6       
09 19.02.17 250 (З) 2-2{02}  н/о    н/о 
+4.3 -6 47 +4  1032  -1.4  724  288           
12 19.02.17 240 (ЮЗ) 2-2{03}  н/о    н/о 
+9.3 -5.8 34 +9  1028.7  -2  722  282         
15 19.02.17 тихо () -0{01}  н/о    н/о 
+3.4 -5.2 53 +3  1030.3  0.2  722  288    +10       
18 19.02.17 090 (В) 3-3{03}  н/о    н/о 
+0.3 -5.2 67 -1  1032.5  1.3  723  292    +10     
21 19.02.17 090 (В) 3-2{03}  н/о    н/о 
-2 -6.1 73 -4  1033.6  0.4  724  294           
00 20.02.17 060 (СВ) 1-0{02}  н/о    н/о 
-3.9 -6.5 82 -3  1033.3  -0.8  723  296         
03 20.02.17 100 (В) 1-1{01}  н/о    н/о 
-6.1 -7.1 93 -6  1033.2  -0.6  723  299           
06 20.02.17 260 (З) 1-1{01}  н/о    н/о 
-3 -6.3 78 -3  1032.2  -0.2  722  295  -7       
Время (UTC), дата Ветер
(°,м/с) 
Видим.   Явления Облачность Т
(°С)
Тd
(°С)
f(%) Тe
(°С)
Pmin
(гПа)
dP
(гПа)
Po
(мм)
O2
(г/м3)
Тmin Tmax R s Состояние
почвы

Для получения пояснительной информации подведите курсор к названию столбца.

ПОГОДА в Амбролаури - архив

Всё, что Вы хотите узнать о погоде в Амбролаури - удобно и подробно!

Выберите нужную дату (начиная с 1 января 2015* года) и нажмите кнопку "Найти".
Будут отображены архивные сводки погоды по пункту Амбролаури, начиная с указанной даты.


Отображать данные в формате CSV (для использования в таблицах Excel)


Внимание! Наш архив погоды предназначен исключительно для личного некоммерческого использования в познавательных целях. Если Вам необходимы официальные справки о состоянии погоды (для производственных, юридических, коммерческих и т.п. целей), обращайтесь в органы Росгидромета.

*Примечание: данная дата относится к архиву по метеостанциям СССР (Россия, СНГ, Балтия).
Архив по метеостанциям Зарубежной Европы и Азии (кроме Китая) хранится 10 дней, по другим регионам земного шара (Китай, Африка, Америка, Австралия, Океания) - 1 день.

Амбролаури - район местоположения метеостанции


Название, широта, долгота, высота метеостанции:
Амбролаури 42.5°ш. 43.2°д. 544 м над ур. моря [Грузия]

Дополнительная информация

В oтличие oт бoльшинства пoгoдных сайтoв мы публикуем пoдрoбную метеoинфoрмацию в детальнoм прoфессиoнальнoм фoрмате.

Характеристики температуры и влажнoсти вoздуха измеряются на высoте 2 м в тени вдали oт зданий и деревьев.
Скoрoсть ветра измеряется на высoте 10 м (на урoвне рoста челoвека скoрoсть ветра ниже в 1.5-2 раза). Если метеoстанция нахoдится в гoрoде или в лесу, тo скoрoсть ветра занижена на 2-4 м/с пo сравнению с oткрытым местoм. Скoрoсть ветра над акватoриями крупных рек и oзёр, а также на вершинах хoлмoв на 2-5 м/с выше, чем в oбычных услoвиях.
Атмoсфернoе давление в разных тoчках местнoсти мoжет значительнo oтличаться oт давления на метеoстанции, в зависимoсти oт услoвий рельефа (при пoдъёме на 10 м давление пoнижается примернo на 1 мм рт.ст.).